Regional Weather Roundup
Issued by NWS

Home | Current Version | Previous Version | Text Only | Print | Product List | Glossary On
Versions: 1 2 3 4 5 6 7 8 9 10 11 12 13 14 15 16 17 18 19 20 21 22 23 24 25 26 27 28 29 30 31 32 33 34 35 36 37 38 39 40 41 42 43 44 45 46 47 48 49 50
000
ASUS43 KMKX 281711
RWRWI

WISCONSIN REGIONAL WEATHER ROUNDUP
NATIONAL WEATHER SERVICE MILWAUKEE/SULLIVAN WI
1200 PM CDT SUN MAY 28 2017

NOTE: "FAIR" INDICATES FEW OR NO CLOUDS BELOW 12,000 FEET WITH NO
SIGNIFICANT WEATHER AND/OR OBSTRUCTIONS TO VISIBILITY.

WIZ001-002-006>008-014>016-023>028-281800-
NORTHWEST WISCONSIN

CITY           SKY/WX    TMP DP  RH WIND       PRES   REMARKS
SUPERIOR ARPT  NOT AVBL
ASHLAND        CLOUDY    58  54  86 W7        29.66F
HAYWARD        PTSUNNY   63  50  62 W9        29.66F
SIREN          MOSUNNY   64  45  49 W14G22    29.70R
CUMBERLAND     PTSUNNY   63  45  51 W15       29.70S
RICE LAKE      PTSUNNY   65  45  48 W13       29.71S
CHETEK         PTSUNNY   64  46  52 W8G18     29.70S
LADYSMITH      PTSUNNY   68  53  58 SW15      29.68F
EAU CLAIRE     PTSUNNY   66  46  48 W17       29.69S
MENOMONIE      PTSUNNY   66  46  47 W14G20    29.71S
NEW RICHMOND   PTSUNNY   63  45  51 W13G25    29.74R
OSCEOLA        PTSUNNY   66  48  52 W15G21    29.76R
$$

WIZ003>005-009-010-017-018-281800-
NORTH CENTRAL WISCONSIN

CITY           SKY/WX    TMP DP  RH WIND       PRES   REMARKS
MANITOWISH WTR CLOUDY    63  49  60 S9        29.65F
ARBOR VITAE    MOSUNNY   67  50  53 S13G22    29.65F
WOODRUFF       MOSUNNY   67  50  53 S13G22    29.65F
RHINELANDER    MOSUNNY   70  49  47 SW14      29.68F
EAGLE RIVER    MOSUNNY   66  47  49 SW9       29.67F
LAND O LAKES   MOSUNNY   67  45  45 S9        29.68F
PHILLIPS       LGT RAIN  59  53  79 SW8G17    29.65F
TOMAHAWK       PTSUNNY   66  50  55 SW6       29.67F
MEDFORD        CLOUDY    64  51  63 SW18      29.68S
MERRILL        MOSUNNY   67  52  58 SW9G16    29.70F
$$

WIZ029-030-035-036-043>047-281800-
CENTRAL WISCONSIN

CITY           SKY/WX    TMP DP  RH WIND       PRES   REMARKS
WAUSAU         SUNNY     68  52  56 S12       29.69F
MOSINEE        MOSUNNY   66  55  68 S12G21    29.72F
MARSHFIELD     PTSUNNY   68  52  56 S13       29.69F
STEVENS POINT  SUNNY     66  49  54 S7        29.72F
WAUPACA        MOSUNNY   69  54  57 SW5       29.73F
WAUTOMA        PTSUNNY   68  56  65 S6        29.73F
WISC RAPIDS    SUNNY     71  52  50 SW14      29.73F
CAMP DOUGLAS   PTSUNNY   70  52  54 W14G20    29.72F
$$

WIZ011>013-019>022-031-037>040-048>050-281800-
NORTHEAST WISCONSIN

CITY           SKY/WX    TMP DP  RH WIND       PRES   REMARKS
ANTIGO         MOSUNNY   65  53  65 S8        29.71F
SHAWANO        MOSUNNY   67  55  65 CALM      29.71F
OCONTO         CLOUDY    61  56  82 W3        29.70F
STURGEON BAY   CLOUDY    58  56  93 W8        29.71F
GREEN BAY      PTSUNNY   63  60  90 SW6       29.72F
MANITOWOC      CLOUDY    60  57  89 W7        29.74S
APPLETON       PTSUNNY   63  54  72 VRB5      29.73F
CLINTONVILLE   MOSUNNY   66  50  55 SW5       29.71F
OSHKOSH        MOSUNNY   64  55  72 VRB3      29.73F
$$

WIZ032>034-041-042-053>061-281800-
SOUTHWEST WISCONSIN

CITY           SKY/WX    TMP DP  RH WIND       PRES   REMARKS
LA CROSSE      SUNNY     74  49  41 W13G22    29.72S
SPARTA         MOSUNNY   71  52  50 W14G22    29.72F
VIROQUA        PTSUNNY   72  51  48 SW17G25   29.75F
BOSCOBEL       MOSUNNY   74  54  49 SW9       29.74F
PRAIRIE DU CHI MOSUNNY   74  50  41 W13G20    29.75F
PLATTEVILLE    SUNNY     70  55  58 SW12      29.78F
$$

WIZ056-057-062-063-064-067-068-281800-
SOUTH CENTRAL WISCONSIN

CITY           SKY/WX    TMP DP  RH WIND       PRES   REMARKS
REEDSBURG      SUNNY     70  52  51 SW10      29.74S
BARABOO/DELLS  SUNNY     69  50  51 W5        29.74F
LONE ROCK      MOSUNNY   71  52  50 VRB6      29.74F
MINERAL POINT  SUNNY     70  52  52 SW7       29.77F
MADISON        MOSUNNY   66  56  70 VRB6      29.75F
MIDDLETON      SUNNY     69  53  56 SW6       29.76F
WATERTOWN      PTSUNNY   63  58  82 CALM      29.75F
MONROE         SUNNY     66  54  63 CALM      29.78S
JANESVILLE     MOSUNNY   66  57  72 N6        29.76F
$$

WIZ051-052-058>065-066-070>072-281800-
SOUTHEAST WISCONSIN

CITY           SKY/WX    TMP DP  RH WIND       PRES   REMARKS
MILWAUKEE      CLOUDY    62  59  90 NW7       29.75S
WAUKESHA       PTSUNNY   59  55  88 NW5       29.77S
MILWAUKEE/TIMM PTSUNNY   61  55  82 N3        29.76F
RACINE         LGT RAIN  61  59  93 N5        29.76S
KENOSHA        CLOUDY    63  60  90 W7        29.75S
FOND DU LAC    MOSUNNY   66  56  70 VRB5      29.74F
SHEBOYGAN      LGT RAIN  61  59  93 NW5       29.73F
WEST BEND      PTSUNNY   61  59  94 NW3       29.75F
JUNEAU         MOSUNNY   62  55  79 CALM      29.77S
$$

LSZ147-162-281800-
LAKE SUPERIOR

STATION/POSITION TIME  TEMP    WIND        PRES    WAVE
                       AIR SEA DIR/SP/G            HT/PER
                 (UTC) (F)     (DEG/KT/KT) (MB)    (FT/S)
W MID LAKE BUOY  1550   47 38  200/  4/  6 1004.8F   0
DEVILS ISLAND    1600   50     270/ 11/ 12 1005.2R
PORT WING        1640   51     290/  4/  7 1004.7F
SAXON HARBOR     1640   53     150/  2/  5 1004.7R
$$

LMZ867-665-643>646-281800-
LAKE MICHIGAN

STATION/POSITION TIME  TEMP    WIND        PRES    WAVE
                       AIR SEA DIR/SP/G            HT/PER
                 (UTC) (F)     (DEG/KT/KT) (MB)    (FT/S)
CHAMBERS ISLAND  1640   57     210/  5/ 10 1005.8F
N MID LAKE BUOY  1650   45 41  280/  6/  6 1007.4F
NORTHPORT PIER   1640   57     270/  2/  4 1006.1F
SISTER BAY       1636   56        CALM       N/A
KEWAUNEE LAKESHO 1648   58     280/  3/  6 1005.9F
SHEBOYGAN LAKESH 1700   58      CALM  /  2 1006.4F
PORT WASHINGTON  1640   61     340/  2/  4 1008.1S
ATWATER BUOY     1609   52     310/  4/  4 1007.9F
MILWAUKEE LAKESH 1650   59     340/  4/  5   N/A
S MID LAKE BUOY  1550   52 50  360/  8/  8 1008.0S   0
KENOSHA   LAKESH 1700   56        CALM     1007.5
$$

TC  - TEMPERATURE IN CELSIUS
VSB - VISIBILITY IN STATUTE MILES
WCI - WIND CHILL INDEX
HX  - HEAT INDEX





USA.gov is the U.S. government's official web portal to all federal, state and local government web resources and services.